Location: Theydon Bois
(51.6750°N, 0.1050°E)
Time: 19:57:54
(UTC+00:00)

Envisat - Pass Details

Date: 19 December 2019
Orbit: 764 x 766 km, 98.1° (Epoch: 28 January)

Event Time Altitude Azimuth Distance (km) Brightness Sun altitude
Rises 17:03:45 0° 145° (SE) 3,225 6.1 -10.5°
Reaches altitude 10° 17:06:07 10° 140° (SE) 2,302 5.3 -10.8°
Maximum altitude 17:10:58 48° 67° (ENE) 1,000 3.2 -11.5°
Drops below altitude 10° 17:15:51 10° 355° (N) 2,318 5.3 -12.2°
Sets 17:18:14 0° 350° (N) 3,248 6.1 -12.5°
